Location: Banksville Park
(38.5557°N, 75.1182°W)
Time: 18:33:24
(UTC+00:00)

SAR-Lupe-1 - Pass Details

Date: 18 January 2021
Orbit: 482 x 484 km, 98.2° (Epoch: 02 March)

Event Time Altitude Azimuth Distance (km) Brightness Sun altitude
Exits shadow 00:40:47 - 324° (NW) 1,721 7.2 -29.9°
Reaches altitude 10° 00:41:03 10° 320° (NW) 1,667 7.2 -30.0°
Maximum altitude 00:42:36 13° 294° (WNW) 1,515 7.2 -30.3°
Drops below altitude 10° 00:44:09 10° 268° (W) 1,662 7.7 -30.6°
Sets 00:47:13 0° 238° (WSW) 2,535 8.6 -31.2°
